Location: Augustenthal
(51.7167°N, 10.2833°E)
Time: 00:36:39
(UTC+00:00)

Cosmos 1455 Rocket - Pass Details

Date: 28 September 2021
Orbit: 605 x 628 km, 82.5° (Epoch: 15 October)

Event Time Altitude Azimuth Distance (km) Brightness Sun altitude
Exits shadow 19:49:16 11° 30° (NNE) 1,941 5.6 -25.5°
Drops below altitude 10° 19:49:24 10° 29° (NNE) 1,985 5.7 -25.5°
Sets 19:51:50 0° 19° (NNE) 2,899 6.7 -25.8°
